Probability
0 0 0 0 0 0 0 0 0 0 0 0 0 0 0 0 0 0 0 0 0 0 0 0 0 0 0 0 0 0 0 0 0 0 0 0 0 0 0 0 0 0 0 0 0 0 0 0 0
0 0 0 0 0 0 0 0 0 0 0 0 0 0 0 0 0 0 0 0 0 0 0 0 0 0 0 0 0 0 0 0 0 0 0 0 0 0 0 0 0 0 0 0 0 0 0 0 0
0 0 0 0 0 0 0 0 0 0 0 0 0 0 0 0 0 0 0 0 0 0 0 0 0 0 0 0 0 0 0 0 1 0 0 0 0 0 0 0 0 0 0 0 0 0 0 0 0
0 0 0 0 0 0 0 0 0 0 0 0 0 0 0 0 0 1 2 1 0 0 0 1 1 1 0 0 0 0 0 0 0 0 0 0 0 0 0 0 0 0 0 0 1 1 2 1 1
0 0 0 0 0 0 0 0 0 0 0 0 0 0 0 0 3 7 7 3 0 0 0 1 2 2 2 2 1 0 0 0 0 0 0 0 0 0 0 0 0 0 0 1 2 3 3 2 1
0 0 0 0 0 0 0 0 0 0 0 0 0 0 0 2 8 14 12 5 1 0 0 1 1 2 4 5 3 1 0 0 0 0 0 0 0 0 0 0 0 0 1 1 1 1 2 1 1
0 0 0 0 0 0 0 0 0 0 0 0 0 0 0 5 17 23 16 8 3 1 0 0 0 1 3 4 3 2 2 2 3 2 1 0 0 0 0 0 0 0 0 0 0 0 0 0 0
0 0 0 0 0 0 0 0 0 0 0 0 0 1 8 22 39 42 31 16 6 2 1 1 0 0 1 1 3 3 3 4 5 4 2 1 0 0 0 0 0 0 0 0 0 0 0 0 0
0 0 0 0 0 0 0 0 0 0 0 0 2 13 33 56 66 60 44 26 16 11 6 2 1 1 0 0 2 2 2 2 3 3 2 1 0 0 0 0 0 0 0 0 0 0 0 0 0
0 0 0 0 0 0 0 0 0 0 0 4 18 43 70 80 71 52 33 25 23 18 9 3 1 1 0 0 0 0 0 0 0 0 0 0 0 0 0 0 0 0 0 0 0 0 0 0 0
0 0 0 0 0 0 0 0 0 0 0 14 47 79 92 84 56 26 12 11 15 12 6 2 1 0 0 0 0 0 0 0 0 0 0 0 0 0 0 0 0 0 0 0 0 0 0 0 0
0 0 0 0 0 0 0 0 0 0 4 29 72 96 97 78 42 11 1 2 3 3 1 1 0 0 0 0 0 0 0 0 0 0 0 0 0 0 0 0 0 0 0 0 0 0 0 0 0
0 0 0 0 0 0 0 0 0 2 16 52 86 100 95 74 37 9 0 0 0 0 0 0 0 0 0 0 0 0 0 0 0 0 0 0 0 0 0 0 0 0 0 0 0 0 0 0 0
0 0 0 0 0 0 0 0 0 9 38 76 96 98 91 69 35 10 1 0 0 0 0 0 0 0 0 0 0 0 0 0 0 0 0 0 0 0 0 0 0 0 0 0 0 0 0 0 0
0 0 0 0 0 0 0 0 0 18 59 91 98 95 84 61 31 9 1 0 0 0 0 0 0 0 0 0 0 0 0 0 0 0 0 0 0 0 0 0 0 0 0 0 0 0 0 0 0
0 0 0 0 0 0 0 0 0 22 66 94 94 87 73 47 20 5 0 0 0 0 0 0 0 0 0 0 0 0 0 0 0 0 0 0 0 0 0 0 0 0 0 0 0 0 0 0 0
0 0 0 0 0 0 0 0 0 16 52 82 86 75 58 34 12 1 0 0 0 0 0 0 0 0 0 0 0 0 0 0 0 0 0 0 0 0 0 0 0 0 0 0 0 0 0 0 0
0 0 0 0 0 0 0 0 0 7 26 54 67 61 47 28 8 0 0 0 0 0 0 0 0 0 0 0 0 0 0 0 0 0 0 0 0 0 0 0 0 0 0 0 0 0 0 0 0
0 0 0 0 0 0 0 0 0 1 7 22 34 37 33 21 7 0 0 0 0 0 0 0 0 0 0 0 0 0 0 0 0 0 0 0 0 0 0 0 0 0 0 0 0 0 0 0 0
0 0 0 0 0 0 0 0 0 0 1 4 8 12 14 11 5 1 0 0 0 0 0 0 0 0 0 0 0 0 0 0 0 0 0 0 0 0 0 0 0 0 0 0 0 0 0 0 0
0 0 0 0 0 0 0 0 0 0 0 0 0 1 3 5 5 2 1 0 0 0 0 0 0 0 0 0 0 0 0 0 0 0 0 0 0 0 0 0 0 0 0 0 0 0 0 0 0
0 0 0 0 0 0 0 0 0 0 0 0 0 2 9 14 14 7 2 0 0 0 0 0 0 0 0 0 0 0 0 0 0 0 0 0 0 0 0 0 0 0 0 0 0 0 0 0 0
0 0 0 0 0 0 0 0 0 0 0 3 10 21 35 44 35 16 4 0 0 0 0 0 0 0 0 0 0 0 0 0 0 0 0 0 0 0 0 0 0 0 0 0 0 0 0 0 0
0 0 0 0 0 0 0 0 0 0 0 11 35 59 73 74 54 25 6 0 0 0 0 0 0 0 0 0 0 0 0 0 0 0 0 0 0 0 0 0 0 0 0 0 0 0 0 0 0
0 0 0 0 0 0 0 0 0 0 0 19 60 88 93 82 55 24 5 0 0 0 0 0 0 0 0 0 0 0 0 0 0 0 0 0 0 0 0 0 0 0 0 0 0 0 0 0 0
0 0 0 0 0 0 0 0 0 0 2 27 71 95 89 67 38 14 3 0 0 0 0 0 0 0 0 0 0 0 0 0 0 0 0 0 0 0 0 0 0 0 0 0 0 0 0 0 0
0 0 0 0 0 0 0 0 0 0 6 34 73 86 68 40 15 4 0 0 0 0 0 0 0 0 0 0 0 0 0 0 0 0 0 0 0 0 0 0 0 0 0 0 0 0 0 0 0
0 0 0 0 0 0 0 0 0 0 9 36 62 62 39 15 3 0 0 0 0 0 0 0 0 0 0 0 0 0 0 0 0 0 0 0 0 0 0 0 0 0 0 0 0 0 0 0 0
0 0 0 0 0 0 0 0 0 0 8 27 42 36 16 3 0 0 0 0 0 0 0 0 0 0 0 0 0 0 0 0 0 0 0 0 0 0 0 0 0 0 0 0 0 0 0 0 0
0 0 0 0 0 0 0 0 0 0 5 20 31 23 7 0 0 0 0 0 0 0 0 0 0 0 0 0 0 0 0 0 0 0 0 0 0 0 0 0 0 0 0 0 0 0 0 0 0
Wind_Speed
4 4 3 3 6 5 3 4 2 1 2 2 4 4 4 5 4 2 2 5 7 6 5 7 10 11 12 12 13 12 12 12 11 11 10 9 9 8 8 9 9 9 8 7 6 4 3 2 3
2 3 3 5 5 1 5 3 1 1 3 5 4 4 3 2 2 4 3 5 7 6 5 6 10 10 11 12 12 12 11 10 10 9 9 8 8 7 6 6 7 8 8 8 7 6 4 3 2
1 3 4 5 3 4 4 2 3 1 3 4 4 3 3 2 4 4 4 8 7 5 3 6 10 10 11 11 11 11 11 10 9 8 8 7 6 6 5 6 5 5 5 5 4 4 2 1 1
3 5 6 4 4 7 6 4 6 6 2 0 4 4 4 3 4 6 9 8 7 5 4 5 9 9 9 9 10 11 11 10 8 7 6 5 5 4 4 4 3 3 2 2 2 1 2 3 4
5 5 4 2 6 6 6 6 9 8 6 4 5 4 3 5 9 12 10 9 7 5 4 6 8 8 8 9 10 10 10 9 7 5 4 3 2 2 1 2 2 1 1 1 4 6 7 6 5
5 5 4 3 7 7 5 5 8 6 5 6 7 5 3 5 10 10 9 7 6 5 5 5 9 10 9 10 10 9 9 8 7 6 5 4 3 2 2 3 2 1 2 5 6 5 4 4 6
5 4 2 3 5 7 4 3 7 6 5 7 8 7 3 5 6 9 8 7 6 6 6 5 6 8 10 10 10 9 8 8 7 7 6 5 4 3 2 2 2 3 3 3 3 2 3 3 4
5 5 1 2 4 5 3 2 4 7 5 5 6 8 7 9 9 10 8 7 6 6 6 5 5 5 5 6 10 10 9 8 8 7 6 4 3 3 3 2 2 4 3 2 2 0 1 2 4
4 5 3 5 3 5 3 1 4 6 8 4 4 5 11 18 14 11 8 5 6 7 6 6 6 6 5 4 6 8 8 8 7 6 6 4 2 2 1 1 3 3 3 1 0 1 2 3 4
4 3 7 5 4 4 6 4 5 8 7 4 6 10 19 17 15 14 12 11 10 10 9 6 7 6 5 3 3 3 3 3 3 2 2 3 2 1 1 3 4 4 3 4 4 4 4 3 2
5 6 5 5 6 5 5 4 4 11 7 9 16 24 21 18 15 14 14 12 11 9 7 5 5 5 5 3 3 2 2 2 2 3 3 2 2 2 3 2 4 5 6 4 4 3 2 2 2
4 5 4 6 4 2 4 3 5 8 7 11 23 27 23 20 17 15 14 11 7 3 3 4 4 3 3 3 3 3 2 2 2 2 2 2 1 1 2 2 2 2 1 2 2 2 3 3 3
4 4 4 7 9 5 4 5 5 2 7 18 21 22 22 20 14 10 8 6 3 1 2 1 2 2 2 3 2 3 3 2 2 2 2 2 1 0 1 1 1 1 1 2 2 3 4 4 4
3 4 6 7 6 2 4 3 3 2 15 21 22 19 18 18 15 10 8 7 2 2 3 2 4 3 2 2 2 2 3 3 3 3 4 3 1 1 2 1 1 1 1 1 1 2 2 2 2
2 4 6 3 4 4 1 1 2 6 17 21 19 17 17 13 13 12 9 3 3 4 3 3 4 4 4 3 3 3 4 5 5 4 5 4 3 3 3 3 2 2 1 1 1 1 1 1 2
2 2 3 6 6 5 3 3 1 7 17 19 17 15 15 12 11 7 5 6 5 5 4 2 4 6 6 5 4 4 5 6 5 4 4 6 5 5 4 3 2 3 2 2 1 2 2 3 4
4 1 2 7 6 6 4 5 1 6 13 17 16 15 14 11 7 5 7 6 6 5 3 2 5 7 7 7 7 7 7 7 5 5 5 6 6 5 4 3 3 3 3 3 3 3 3 4 5
3 2 3 5 5 6 4 4 2 3 7 13 16 15 15 14 8 7 7 6 5 4 4 3 5 7 7 7 7 7 7 6 5 6 7 7 6 7 5 4 5 4 4 4 4 4 4 3 3
4 2 6 7 3 2 2 3 4 2 3 5 7 10 13 10 8 8 6 5 5 5 5 5 7 6 5 4 4 5 4 4 5 6 8 7 7 7 6 5 5 5 5 5 5 3 3 3 3
3 2 6 8 1 2 1 1 2 4 2 2 3 3 5 9 9 7 6 5 6 6 6 6 6 5 4 4 4 5 5 5 4 4 7 7 8 7 7 7 6 5 4 6 5 4 2 2 3
4 4 6 8 2 1 2 3 1 2 3 5 5 5 5 9 11 9 8 8 7 7 7 7 7 7 7 6 6 6 4 4 4 5 4 7 8 8 7 6 5 5 4 3 3 3 2 2 2
5 8 8 7 2 4 3 4 5 1 1 4 6 7 8 8 10 10 10 10 9 9 9 9 9 9 8 7 8 8 6 4 4 3 4 6 7 7 6 5 5 4 4 4 4 4 3 2 2
9 6 4 5 4 2 1 4 7 1 5 8 10 9 9 10 11 12 12 12 11 10 10 10 11 11 10 9 9 9 8 5 3 4 5 5 5 5 5 5 4 4 3 3 4 4 3 2 2
6 3 5 4 4 2 7 7 7 8 11 10 13 12 12 11 13 13 13 13 12 11 11 10 11 11 10 10 9 9 7 5 5 4 3 3 2 3 4 3 3 2 2 2 3 3 3 2 2
4 4 4 5 4 7 5 6 11 10 9 11 16 15 13 13 13 14 14 13 12 12 10 10 11 9 8 9 7 6 6 5 4 2 2 1 1 2 2 2 1 1 1 1 1 2 2 1 2
6 9 8 6 7 8 3 8 9 7 6 9 14 15 14 13 13 14 14 13 12 11 9 9 9 7 6 7 5 4 4 3 2 1 1 1 2 2 2 2 1 1 1 1 1 1 2 1 3
7 7 8 7 3 4 7 6 5 3 3 13 17 17 16 14 15 16 15 13 12 11 8 8 8 6 5 5 5 3 3 2 2 1 1 1 2 2 3 3 2 2 2 2 1 2 3 3 4
9 8 6 7 6 7 7 5 7 8 13 16 19 18 15 15 15 15 13 12 11 9 7 7 6 6 5 5 4 3 2 1 0 1 2 2 3 3 3 4 3 4 5 5 4 4 4 4 5
6 6 6 6 6 7 7 10 7 11 17 19 18 17 18 18 17 14 12 12 11 11 9 8 7 6 5 4 3 2 1 1 1 2 3 3 3 4 4 5 4 5 6 6 5 6 7 7 7
6 8 9 6 7 5 5 10 6 7 11 15 18 18 18 18 15 13 11 10 8 8 7 7 6 5 4 2 1 2 1 1 1 3 4 4 4 5 5 5 5 6 7 7 7 9 8 7 8
Wind_Direction
156 132 108 71 54 48 273 257 246 75 116 131 126 135 152 156 172 200 38 96 116 123 137 148 152 153 148 141 137 134 132 132 134 135 133 131 132 136 141 146 152 156 159 161 161 161 152 119 81
127 135 63 62 82 26 272 253 204 201 150 130 115 115 114 128 83 102 93 109 116 128 138 149 154 155 152 146 140 135 134 136 141 145 144 145 147 149 157 163 169 168 166 166 172 179 179 158 118
136 84 86 74 116 195 241 206 156 111 136 128 118 82 98 127 118 128 119 118 109 116 124 158 155 153 151 147 143 141 143 146 150 153 153 157 163 167 177 185 191 189 176 174 186 195 184 158 33
88 49 54 74 231 224 216 184 154 143 184 146 105 81 44 59 121 120 121 119 115 125 135 153 147 139 139 142 144 150 152 152 155 163 165 169 180 188 197 202 200 202 192 204 207 158 82 66 50
65 76 58 340 265 251 227 187 163 161 179 154 117 98 46 34 96 116 123 129 138 138 133 137 130 126 127 140 148 155 154 152 160 169 168 166 176 192 196 197 199 235 282 59 68 58 53 44 26
61 70 81 284 279 280 265 189 161 152 141 124 117 102 49 85 115 123 124 130 133 125 119 129 139 139 136 140 147 152 154 152 154 153 147 147 151 175 228 233 243 247 86 74 64 51 34 18 10
111 107 157 252 287 297 300 146 152 135 130 149 128 109 100 123 132 128 123 120 118 126 136 149 153 153 152 146 143 144 143 141 141 141 140 145 153 171 197 182 167 145 127 118 96 39 5 7 8
130 103 135 257 263 292 326 169 154 129 142 127 122 138 160 165 145 125 119 124 135 146 157 163 155 151 154 154 153 151 150 150 150 150 149 149 143 146 145 157 185 180 178 172 141 38 350 354 358
99 87 212 228 238 295 318 238 133 126 113 120 140 159 152 149 141 132 133 147 165 163 169 172 158 155 158 158 161 157 160 161 158 162 172 148 88 59 39 259 243 229 206 175 331 316 328 346 -0
113 160 226 216 211 266 293 247 156 117 120 121 98 117 135 148 150 154 165 178 183 182 191 179 164 157 157 163 133 125 129 140 137 123 98 77 56 7 360 328 339 360 17 13 350 338 352 12 355
170 203 239 247 232 250 267 249 163 135 167 180 155 147 151 155 162 170 182 191 193 189 183 155 164 158 157 136 114 105 96 99 98 89 80 71 57 32 37 28 18 21 22 18 357 355 336 290 270
194 242 241 272 260 247 235 197 166 181 197 166 154 152 156 164 173 180 190 204 207 193 144 153 167 152 142 121 124 125 117 113 108 99 93 83 57 56 60 39 17 18 354 313 296 286 293 288 275
215 265 267 262 291 258 213 196 189 201 126 138 146 155 163 168 176 185 197 215 212 122 77 114 100 77 77 106 124 126 116 105 100 101 103 126 165 191 99 54 2 339 324 302 306 321 331 332 329
232 238 276 284 286 257 169 201 123 126 140 142 153 165 171 171 172 178 194 213 198 90 80 73 78 69 79 97 117 112 105 98 82 59 43 51 94 105 93 70 45 23 19 3 329 330 327 319 317
285 288 313 315 331 356 49 35 95 161 146 151 163 169 173 173 173 183 186 163 85 74 78 91 111 103 105 100 97 84 82 85 75 59 45 54 73 86 87 74 52 23 30 62 72 18 312 308 322
15 24 315 306 352 5 40 294 199 177 156 161 169 172 172 174 179 174 120 86 75 74 79 109 134 118 112 107 90 75 74 78 76 73 64 60 64 75 76 65 34 8 23 35 34 14 350 359 354
17 360 278 311 357 21 35 277 251 204 174 169 174 175 173 170 164 124 97 97 84 75 82 128 138 127 117 99 84 79 78 77 74 69 64 59 59 64 71 62 33 22 37 29 18 34 33 18 357
237 271 293 282 315 359 348 294 327 233 208 188 179 177 178 177 159 113 99 91 81 76 79 99 107 112 111 103 95 87 73 65 62 61 58 58 57 57 59 58 42 43 50 37 31 49 52 34 347
178 217 271 272 280 307 315 328 345 6 174 211 212 191 178 159 117 100 91 74 66 65 77 91 104 106 111 106 100 92 77 61 57 57 53 50 52 53 52 51 42 41 51 46 37 44 50 25 355
173 250 280 293 291 186 160 351 7 37 78 168 198 225 177 145 130 114 96 72 74 79 77 83 86 87 86 94 96 96 103 84 72 58 46 41 47 47 54 51 48 42 47 43 36 33 20 357 15
204 207 245 266 327 136 114 334 345 46 67 85 106 129 156 168 151 128 110 100 91 79 69 70 66 68 67 81 92 92 81 69 51 42 40 37 53 58 56 54 55 47 46 34 20 25 26 329 320
244 226 223 259 286 259 182 260 271 197 131 152 148 149 160 161 144 130 121 109 96 86 77 73 69 63 58 66 81 81 81 77 58 62 61 47 46 47 45 41 41 37 30 18 356 14 353 334 318
220 239 217 240 229 242 219 198 271 214 222 205 181 169 162 156 145 135 125 112 98 89 81 75 71 62 57 60 70 77 76 76 70 64 61 49 36 32 33 37 36 34 27 21 17 11 4 351 327
208 59 52 51 80 257 221 181 245 217 212 192 179 173 162 149 138 128 117 106 97 89 83 78 74 65 62 67 69 80 87 85 78 64 55 33 12 5 11 30 36 32 21 11 3 356 356 356 345
140 111 11 342 348 250 222 175 237 231 218 180 175 170 161 146 137 128 119 113 106 98 93 90 89 81 75 79 76 81 91 95 101 101 75 38 347 325 330 352 3 359 335 325 333 334 340 355 346
186 157 171 212 244 273 277 215 246 272 248 165 158 159 156 145 134 129 125 121 113 104 97 96 97 96 92 90 83 80 92 100 105 120 153 217 251 262 274 287 283 285 300 302 303 299 294 306 310
159 187 183 164 228 265 274 271 285 334 158 158 160 162 160 144 133 130 127 121 117 111 108 113 117 118 116 115 114 110 117 123 127 154 236 261 275 274 296 305 316 307 291 279 262 250 268 285 285
171 158 113 137 178 249 268 256 238 196 184 174 170 166 153 138 132 131 127 124 121 121 124 122 134 142 146 142 136 133 130 120 107 330 327 312 306 302 306 297 297 290 276 264 259 266 269 273 277
161 150 157 152 171 196 251 259 235 207 189 180 172 163 153 143 141 139 135 136 135 134 133 129 141 151 154 147 135 140 177 203 281 294 289 292 298 303 291 273 273 277 269 260 255 259 264 265 278
179 177 151 164 223 207 219 259 312 247 184 170 164 158 150 144 146 141 136 131 128 125 129 140 157 158 148 133 170 217 229 252 273 276 275 275 278 282 279 278 275 274 269 259 251 259 264 264 278